| time (UTC) | temp F | wind direction | speed knots | gust knots | rain 1hr in | rain 24hr in | rain mn in | humidity % | barometer mb |
| 20260906191142 | 87 | 117 | 0.0 | 0.0 | 0.00 | 0.00 | 0.00 | 64 | 1013.7 |
| 20260906190642 | 87 | 117 | 0.0 | 0.0 | 0.00 | 0.00 | 0.00 | 63 | 1013.7 |
| 20260906190142 | 87 | 81 | 0.0 | 0.0 | 0.00 | 0.00 | 0.00 | 63 | 1013.6 |
| 20260906185643 | 87 | 96 | 0.0 | 0.0 | 0.00 | 0.00 | 0.00 | 63 | 1013.7 |
| 20260906184641 | 88 | 113 | 0.0 | 0.0 | 0.00 | 0.00 | 0.00 | 62 | 1014.0 |
| 20260906184139 | 88 | 113 | 0.0 | 0.0 | 0.00 | 0.00 | 0.00 | 61 | 1014.1 |
| 20260906183639 | 88 | 208 | 0.0 | 0.0 | 0.00 | 0.00 | 0.00 | 62 | 1014.2 |
| 20260906183139 | 88 | 284 | 0.0 | 0.0 | 0.00 | 0.00 | 0.00 | 62 | 1014.2 |
| 20260906182638 | 87 | 284 | 0.0 | 0.0 | 0.00 | 0.00 | 0.00 | 63 | 1014.3 |
| 20260906181639 | 88 | 279 | 0.0 | 0.0 | 0.00 | 0.00 | 0.00 | 61 | 1014.3 |
| 20260906180636 | 88 | 171 | 0.0 | 0.0 | 0.00 | 0.00 | 0.00 | 61 | 1014.5 |
| 20260906180135 | 88 | 134 | 0.0 | 0.0 | 0.00 | 0.00 | 0.00 | 60 | 1014.6 |
| 20260906175633 | 88 | 103 | 0.0 | 0.0 | 0.00 | 0.00 | 0.00 | 60 | 1014.6 |
| 20260906175134 | 89 | 286 | 0.0 | 0.0 | 0.00 | 0.00 | 0.00 | 60 | 1014.6 |
| 20260906174632 | 89 | 172 | 0.0 | 0.0 | 0.00 | 0.00 | 0.00 | 60 | 1014.7 |
| 20260906174132 | 88 | 196 | 0.0 | 0.0 | 0.00 | 0.00 | 0.00 | 60 | 1014.6 |
| 20260906173631 | 88 | 242 | 0.0 | 0.0 | 0.00 | 0.00 | 0.00 | 63 | 1014.6 |
| 20260906173130 | 87 | 211 | 0.0 | 0.0 | 0.00 | 0.00 | 0.00 | 62 | 1014.6 |
| 20260906172132 | 87 | 219 | 0.0 | 0.0 | 0.00 | 0.00 | 0.00 | 63 | 1014.7 |
| 20260906171631 | 87 | 129 | 0.0 | 0.0 | 0.00 | 0.00 | 0.00 | 63 | 1014.9 |
| 20260906171130 | 86 | 293 | 0.0 | 0.0 | 0.00 | 0.00 | 0.00 | 64 | 1015.1 |
| 20260906170629 | 87 | 278 | 0.0 | 0.0 | 0.00 | 0.00 | 0.00 | 62 | 1015.2 |
| 20260906170131 | 87 | 266 | 0.0 | 0.0 | 0.00 | 0.00 | 0.00 | 63 | 1015.3 |
| 20260906165630 | 87 | 210 | 0.0 | 0.0 | 0.00 | 0.00 | 0.00 | 63 | 1015.4 |
| 20260906165128 | 86 | 283 | 0.0 | 0.0 | 0.00 | 0.00 | 0.00 | 65 | 1015.3 |
| 20260906164626 | 86 | 272 | 0.0 | 0.0 | 0.00 | 0.00 | 0.00 | 63 | 1015.3 |
| 20260906163626 | 87 | 248 | 0.0 | 0.0 | 0.00 | 0.00 | 0.00 | 64 | 1015.2 |
| 20260906163126 | 87 | 120 | 0.0 | 0.0 | 0.00 | 0.00 | 0.00 | 63 | 1015.3 |
| 20260906162626 | 86 | 139 | 0.0 | 0.0 | 0.00 | 0.00 | 0.00 | 66 | 1015.3 |
| 20260906162124 | 85 | 266 | 0.0 | 0.0 | 0.00 | 0.00 | 0.00 | 65 | 1015.3 |
| 20260906161626 | 85 | 266 | 0.0 | 0.0 | 0.00 | 0.00 | 0.00 | 68 | 1015.3 |
| 20260906161123 | 84 | 283 | 0.0 | 0.0 | 0.00 | 0.00 | 0.00 | 68 | 1015.4 |
| 20260906160623 | 84 | 253 | 0.0 | 0.0 | 0.00 | 0.00 | 0.00 | 69 | 1015.4 |
| 20260906160122 | 83 | 287 | 0.0 | 0.0 | 0.00 | 0.00 | 0.00 | 69 | 1015.4 |
| 20260906155620 | 83 | 293 | 0.0 | 0.0 | 0.00 | 0.00 | 0.00 | 67 | 1015.5 |
| 20260906155120 | 84 | 273 | 0.0 | 0.0 | 0.00 | 0.00 | 0.00 | 66 | 1015.6 |
| 20260906154118 | 84 | 265 | 0.0 | 0.0 | 0.00 | 0.00 | 0.00 | 69 | 1015.6 |
| 20260906153618 | 84 | 278 | 0.0 | 0.0 | 0.00 | 0.00 | 0.00 | 68 | 1015.6 |
| 20260906153117 | 83 | 254 | 0.0 | 0.0 | 0.00 | 0.00 | 0.00 | 70 | 1015.6 |
| 20260906152617 | 83 | 146 | 0.0 | 0.0 | 0.00 | 0.00 | 0.00 | 71 | 1015.6 |
| 20260906152114 | 83 | 283 | 0.0 | 0.0 | 0.00 | 0.00 | 0.00 | 70 | 1015.5 |
| 20260906151614 | 83 | 266 | 0.0 | 0.0 | 0.00 | 0.00 | 0.00 | 70 | 1015.5 |
| 20260906151114 | 83 | 136 | 0.0 | 0.0 | 0.00 | 0.00 | 0.00 | 73 | 1015.5 |
| 20260906150112 | 81 | 136 | 0.0 | 0.0 | 0.00 | 0.00 | 0.00 | 74 | 1015.5 |
| 20260906145613 | 81 | 158 | 0.0 | 0.0 | 0.00 | 0.00 | 0.00 | 76 | 1015.4 |
| 20260906145110 | 80 | 236 | 0.0 | 0.0 | 0.00 | 0.00 | 0.00 | 78 | 1015.2 |
| 20260906144610 | 80 | 243 | 0.0 | 0.0 | 0.00 | 0.00 | 0.00 | 77 | 1015.2 |
| 20260906144108 | 80 | 277 | 0.0 | 0.0 | 0.00 | 0.00 | 0.00 | 78 | 1015.3 |
| 20260906143608 | 80 | 273 | 0.0 | 0.0 | 0.00 | 0.00 | 0.00 | 78 | 1015.4 |
| 20260906142108 | 80 | 285 | 0.0 | 0.0 | 0.00 | 0.00 | 0.00 | 75 | 1015.6 |
| 20260906141608 | 80 | 283 | 0.0 | 0.0 | 0.00 | 0.00 | 0.00 | 74 | 1015.5 |
| 20260906141107 | 81 | 283 | 0.0 | 0.0 | 0.00 | 0.00 | 0.00 | 74 | 1015.6 |
| 20260906140607 | 80 | 283 | 0.0 | 0.0 | 0.00 | 0.00 | 0.00 | 75 | 1015.5 |
| 20260906135608 | 80 | 114 | 0.0 | 0.0 | 0.00 | 0.00 | 0.00 | 76 | 1014.8 |
| 20260906134609 | 80 | 114 | 0.0 | 0.0 | 0.00 | 0.00 | 0.00 | 76 | 1014.7 |
| 20260906134108 | 80 | 91 | 0.0 | 0.0 | 0.00 | 0.00 | 0.00 | 76 | 1014.7 |
| 20260906133108 | 80 | 145 | 0.0 | 0.0 | 0.00 | 0.00 | 0.00 | 76 | 1014.7 |
| 20260906132607 | 80 | 124 | 0.0 | 0.0 | 0.00 | 0.00 | 0.00 | 76 | 1014.8 |
| 20260906132108 | 80 | 111 | 0.0 | 0.0 | 0.00 | 0.00 | 0.00 | 75 | 1014.7 |
| 20260906131608 | 80 | 166 | 0.0 | 0.0 | 0.00 | 0.00 | 0.00 | 75 | 1014.7 |
| 20260906131108 | 80 | 227 | 0.0 | 0.0 | 0.00 | 0.00 | 0.00 | 75 | 1014.7 |
| 20260906130607 | 80 | 237 | 0.0 | 0.0 | 0.00 | 0.00 | 0.00 | 75 | 1014.7 |
| 20260906130108 | 80 | 242 | 0.0 | 0.0 | 0.00 | 0.00 | 0.00 | 76 | 1014.6 |
| 20260906125107 | 80 | 119 | 0.0 | 0.0 | 0.00 | 0.00 | 0.00 | 77 | 1014.5 |
| 20260906124608 | 79 | 92 | 0.0 | 0.0 | 0.00 | 0.00 | 0.00 | 77 | 1014.4 |
| 20260906124108 | 79 | 107 | 0.0 | 0.0 | 0.00 | 0.00 | 0.00 | 77 | 1014.4 |
| 20260906123608 | 79 | 107 | 0.0 | 0.0 | 0.00 | 0.00 | 0.00 | 78 | 1014.3 |
| 20260906123109 | 79 | 92 | 0.0 | 0.0 | 0.00 | 0.00 | 0.00 | 78 | 1014.1 |
| 20260906122608 | 79 | 114 | 0.0 | 0.0 | 0.00 | 0.00 | 0.00 | 78 | 1014.1 |
| 20260906122108 | 78 | 82 | 0.0 | 0.0 | 0.00 | 0.00 | 0.00 | 79 | 1014.1 |
| 20260906121607 | 78 | 106 | 0.0 | 0.0 | 0.00 | 0.00 | 0.00 | 79 | 1014.1 |
| 20260906121107 | 78 | 106 | 0.0 | 0.0 | 0.00 | 0.00 | 0.00 | 79 | 1014.1 |
| 20260906120108 | 78 | 137 | 0.0 | 0.0 | 0.00 | 0.00 | 0.00 | 79 | 1013.9 |
| 20260906115607 | 78 | 137 | 0.0 | 0.0 | 0.00 | 0.00 | 0.00 | 78 | 1013.8 |
| 20260906115107 | 78 | 137 | 0.0 | 0.0 | 0.00 | 0.00 | 0.00 | 77 | 1013.8 |
| 20260906114608 | 79 | 137 | 0.0 | 0.0 | 0.00 | 0.00 | 0.00 | 77 | 1013.7 |
| 20260906114108 | 79 | 137 | 0.0 | 0.0 | 0.00 | 0.00 | 0.00 | 77 | 1013.7 |
| 20260906113108 | 79 | 137 | 0.0 | 0.0 | 0.00 | 0.00 | 0.00 | 76 | 1013.6 |
| 20260906112107 | 79 | 171 | 0.0 | 0.0 | 0.00 | 0.00 | 0.00 | 75 | 1013.6 |
| 20260906111608 | 79 | 167 | 0.0 | 0.0 | 0.00 | 0.00 | 0.00 | 75 | 1013.5 |
| 20260906111107 | 80 | 167 | 0.0 | 0.0 | 0.00 | 0.00 | 0.00 | 75 | 1013.6 |
| 20260906110607 | 80 | 167 | 0.0 | 0.0 | 0.00 | 0.00 | 0.00 | 74 | 1013.6 |
| 20260906110108 | 80 | 167 | 0.0 | 0.0 | 0.00 | 0.00 | 0.00 | 74 | 1013.5 |
| 20260906105609 | 80 | 117 | 0.0 | 0.0 | 0.00 | 0.00 | 0.00 | 74 | 1013.5 |
| 20260906105108 | 80 | 135 | 0.0 | 0.0 | 0.00 | 0.00 | 0.00 | 73 | 1013.5 |
| 20260906104608 | 80 | 118 | 0.0 | 0.0 | 0.00 | 0.00 | 0.00 | 73 | 1013.6 |
| 20260906104107 | 80 | 106 | 0.0 | 0.0 | 0.00 | 0.00 | 0.00 | 73 | 1013.6 |
| 20260906103608 | 80 | 123 | 0.0 | 0.0 | 0.00 | 0.00 | 0.00 | 72 | 1013.6 |
| 20260906103107 | 81 | 152 | 0.0 | 0.0 | 0.00 | 0.00 | 0.00 | 72 | 1013.6 |
| 20260906102608 | 81 | 107 | 0.0 | 0.0 | 0.00 | 0.00 | 0.00 | 72 | 1013.5 |
| 20260906102108 | 81 | 115 | 0.0 | 0.0 | 0.00 | 0.00 | 0.00 | 72 | 1013.4 |
| 20260906101108 | 81 | 150 | 0.0 | 0.0 | 0.00 | 0.00 | 0.00 | 72 | 1013.4 |
| 20260906100608 | 81 | 117 | 0.0 | 0.0 | 0.00 | 0.00 | 0.00 | 72 | 1013.3 |
| 20260906100108 | 81 | 179 | 0.0 | 0.0 | 0.00 | 0.00 | 0.00 | 72 | 1013.3 |
| 20260906095609 | 81 | 176 | 0.0 | 0.0 | 0.00 | 0.00 | 0.00 | 72 | 1013.3 |
| 20260906095107 | 81 | 137 | 0.0 | 0.0 | 0.00 | 0.00 | 0.00 | 71 | 1013.3 |
| 20260906094607 | 81 | 101 | 0.0 | 0.0 | 0.00 | 0.00 | 0.00 | 72 | 1013.2 |
| 20260906093607 | 81 | 105 | 0.0 | 0.0 | 0.00 | 0.00 | 0.00 | 72 | 1013.3 |
| 20260906093107 | 81 | 129 | 0.0 | 0.0 | 0.00 | 0.00 | 0.00 | 72 | 1013.4 |
| 20260906092609 | 81 | 131 | 0.0 | 0.0 | 0.00 | 0.00 | 0.00 | 72 | 1013.4 |
| 20260906091608 | 81 | 124 | 0.0 | 0.0 | 0.00 | 0.00 | 0.00 | 72 | 1013.4 |
| 20260906091108 | 81 | 120 | 0.0 | 0.0 | 0.00 | 0.00 | 0.00 | 72 | 1013.5 |
| 20260906090107 | 81 | 122 | 0.0 | 0.0 | 0.00 | 0.00 | 0.00 | 72 | 1013.5 |
| 20260906085608 | 81 | 115 | 0.0 | 0.0 | 0.00 | 0.00 | 0.00 | 71 | 1013.5 |
| 20260906085107 | 81 | 109 | 0.0 | 0.0 | 0.00 | 0.00 | 0.00 | 71 | 1013.5 |
| 20260906084607 | 81 | 108 | 0.0 | 0.0 | 0.00 | 0.00 | 0.00 | 71 | 1013.5 |
| 20260906084107 | 82 | 129 | 0.0 | 0.0 | 0.00 | 0.00 | 0.00 | 71 | 1013.5 |
| 20260906083605 | 82 | 168 | 0.0 | 0.0 | 0.00 | 0.00 | 0.00 | 71 | 1013.5 |
| 20260906082606 | 81 | 111 | 0.0 | 0.0 | 0.00 | 0.00 | 0.00 | 72 | 1013.4 |
| 20260906082107 | 81 | 165 | 0.0 | 0.0 | 0.00 | 0.00 | 0.00 | 72 | 1013.4 |
| 20260906081607 | 81 | 117 | 0.0 | 0.0 | 0.00 | 0.00 | 0.00 | 72 | 1013.5 |
| 20260906080606 | 81 | 105 | 0.0 | 0.0 | 0.00 | 0.00 | 0.00 | 72 | 1013.2 |
| 20260906080106 | 81 | 142 | 0.0 | 0.0 | 0.00 | 0.00 | 0.00 | 72 | 1013.3 |
| 20260906075105 | 82 | 134 | 0.0 | 0.0 | 0.00 | 0.00 | 0.00 | 72 | 1013.3 |
| 20260906074606 | 82 | 116 | 0.0 | 0.0 | 0.00 | 0.00 | 0.00 | 71 | 1013.4 |
| 20260906074105 | 82 | 112 | 0.0 | 1.7 | 0.00 | 0.00 | 0.00 | 71 | 1013.3 |
| 20260906073604 | 83 | 134 | 0.0 | 2.6 | 0.00 | 0.00 | 0.00 | 69 | 1013.3 |
| 20260906073103 | 83 | 113 | 0.0 | 2.6 | 0.00 | 0.00 | 0.00 | 69 | 1013.2 |
| 20260906072601 | 83 | 127 | 0.0 | 2.6 | 0.00 | 0.00 | 0.00 | 68 | 1013.1 |
| 20260906072101 | 83 | 167 | 0.0 | 2.6 | 0.00 | 0.00 | 0.00 | 68 | 1013.1 |
| 20260906071601 | 83 | 120 | 0.0 | 2.6 | 0.00 | 0.00 | 0.00 | 68 | 1013.1 |
| 20260906071101 | 83 | 146 | 0.0 | 3.5 | 0.00 | 0.00 | 0.00 | 69 | 1013.1 |
| 20260906070601 | 83 | 111 | 0.0 | 3.5 | 0.00 | 0.00 | 0.00 | 70 | 1013.0 |
| 20260906070058 | 83 | 91 | 0.0 | 3.5 | 0.00 | 0.00 | 0.00 | 70 | 1013.2 |
| 20260906065559 | 82 | 113 | 0.0 | 6.1 | 0.00 | 0.00 | 0.00 | 70 | 1013.3 |
| 20260906065059 | 82 | 100 | 0.0 | 6.1 | 0.00 | 0.00 | 0.00 | 71 | 1013.4 |
| 20260906064555 | 82 | 136 | 0.0 | 1.7 | 0.00 | 0.00 | 0.00 | 71 | 1013.4 |
| 20260906064056 | 82 | 91 | 0.0 | 1.7 | 0.00 | 0.00 | 0.00 | 72 | 1013.4 |
| 20260906063554 | 82 | 110 | 0.0 | 0.0 | 0.00 | 0.00 | 0.00 | 72 | 1013.4 |
| 20260906062553 | 82 | 131 | 0.0 | 0.0 | 0.00 | 0.00 | 0.00 | 72 | 1013.4 |
| 20260906062050 | 82 | 117 | 0.0 | 0.0 | 0.00 | 0.00 | 0.00 | 72 | 1013.5 |
| 20260906061048 | 82 | 105 | 0.0 | 0.0 | 0.00 | 0.00 | 0.00 | 71 | 1013.5 |
| 20260906055042 | 82 | 92 | 0.0 | 0.0 | 0.00 | 0.00 | 0.00 | 71 | 1013.5 |
| 20260906054539 | 82 | 108 | 0.0 | 0.0 | 0.00 | 0.00 | 0.00 | 71 | 1013.7 |
| 20260906054037 | 82 | 99 | 0.0 | 0.0 | 0.00 | 0.00 | 0.00 | 70 | 1013.7 |
| 20260906053534 | 83 | 99 | 0.0 | 0.0 | 0.00 | 0.00 | 0.00 | 70 | 1013.6 |
| 20260906053035 | 83 | 105 | 0.0 | 0.0 | 0.00 | 0.00 | 0.00 | 70 | 1013.7 |
| 20260906052532 | 83 | 93 | 0.0 | 0.0 | 0.00 | 0.00 | 0.00 | 70 | 1013.5 |
| 20260906052030 | 83 | 98 | 0.0 | 0.0 | 0.00 | 0.00 | 0.00 | 69 | 1013.6 |
| 20260906051530 | 83 | 101 | 0.0 | 0.0 | 0.00 | 0.00 | 0.00 | 69 | 1013.5 |
| 20260906051028 | 83 | 110 | 0.0 | 0.0 | 0.00 | 0.00 | 0.00 | 69 | 1013.5 |
| 20260906050026 | 84 | 112 | 0.0 | 0.0 | 0.00 | 0.00 | 0.00 | 68 | 1013.5 |
| 20260906045525 | 84 | 84 | 0.0 | 0.0 | 0.00 | 0.00 | 0.00 | 68 | 1013.4 |
| 20260906045024 | 84 | 84 | 0.0 | 0.0 | 0.00 | 0.00 | 0.00 | 67 | 1013.4 |
| 20260906044524 | 84 | 101 | 0.0 | 0.0 | 0.00 | 0.00 | 0.00 | 67 | 1013.4 |
| 20260906043023 | 84 | 100 | 0.0 | 0.0 | 0.00 | 0.00 | 0.00 | 66 | 1013.3 |
| 20260906042524 | 85 | 117 | 0.0 | 0.0 | 0.00 | 0.00 | 0.00 | 66 | 1013.4 |
| 20260906042022 | 85 | 97 | 0.0 | 0.0 | 0.00 | 0.00 | 0.00 | 66 | 1013.3 |
| 20260906041522 | 85 | 115 | 0.0 | 0.0 | 0.00 | 0.00 | 0.00 | 66 | 1013.3 |
| 20260906041022 | 85 | 115 | 0.0 | 0.0 | 0.00 | 0.00 | 0.00 | 66 | 1013.3 |
| 20260906040522 | 85 | 115 | 0.0 | 0.0 | 0.00 | 0.00 | 0.00 | 66 | 1013.3 |
| 20260906035022 | 85 | 115 | 0.0 | 0.0 | 0.00 | 0.00 | 0.00 | 67 | 1013.3 |
| 20260906034523 | 84 | 115 | 0.0 | 0.0 | 0.00 | 0.00 | 0.00 | 67 | 1013.3 |
| 20260906034020 | 85 | 115 | 0.0 | 0.0 | 0.00 | 0.00 | 0.00 | 66 | 1013.4 |
| 20260906032520 | 86 | 115 | 0.0 | 0.0 | 0.00 | 0.00 | 0.00 | 62 | 1013.2 |
| 20260906032020 | 87 | 115 | 0.0 | 0.0 | 0.00 | 0.00 | 0.00 | 61 | 1013.2 |
| 20260906031521 | 87 | 115 | 0.0 | 0.0 | 0.00 | 0.00 | 0.00 | 61 | 1013.1 |
| 20260906031020 | 87 | 115 | 0.0 | 0.0 | 0.00 | 0.00 | 0.00 | 60 | 1013.0 |
| 20260906030521 | 87 | 115 | 0.0 | 0.0 | 0.00 | 0.00 | 0.00 | 60 | 1012.8 |
| 20260906030020 | 87 | 109 | 0.0 | 0.0 | 0.00 | 0.00 | 0.00 | 61 | 1012.7 |
| 20260906025520 | 87 | 103 | 0.0 | 0.0 | 0.00 | 0.00 | 0.00 | 61 | 1012.6 |
| 20260906025018 | 87 | 103 | 0.0 | 0.0 | 0.00 | 0.00 | 0.00 | 60 | 1012.6 |
| 20260906024518 | 87 | 129 | 0.0 | 0.0 | 0.00 | 0.00 | 0.00 | 61 | 1012.6 |
| 20260906024019 | 88 | 110 | 0.0 | 0.0 | 0.00 | 0.00 | 0.00 | 61 | 1012.5 |
| 20260906023518 | 88 | 110 | 0.0 | 0.0 | 0.00 | 0.00 | 0.00 | 61 | 1012.4 |
| 20260906023018 | 88 | 124 | 0.0 | 0.0 | 0.00 | 0.00 | 0.00 | 60 | 1012.3 |
| 20260906022016 | 88 | 122 | 0.0 | 0.0 | 0.00 | 0.00 | 0.00 | 60 | 1012.2 |
| 20260906021516 | 88 | 110 | 0.0 | 0.0 | 0.00 | 0.00 | 0.00 | 60 | 1012.1 |
| 20260906021016 | 88 | 105 | 0.0 | 0.0 | 0.00 | 0.00 | 0.00 | 61 | 1012.1 |
| 20260906020515 | 88 | 105 | 0.0 | 0.0 | 0.00 | 0.00 | 0.00 | 61 | 1011.9 |
| 20260906020016 | 88 | 105 | 0.0 | 0.0 | 0.00 | 0.00 | 0.00 | 60 | 1011.8 |
| 20260906015514 | 89 | 104 | 0.0 | 0.0 | 0.00 | 0.00 | 0.00 | 60 | 1011.7 |
| 20260906014514 | 89 | 105 | 0.0 | 0.0 | 0.00 | 0.00 | 0.00 | 58 | 1011.7 |
| 20260906014014 | 89 | 104 | 0.0 | 0.0 | 0.00 | 0.00 | 0.00 | 57 | 1011.7 |
| 20260906012514 | 90 | 105 | 0.0 | 0.0 | 0.00 | 0.00 | 0.00 | 55 | 1011.4 |
| 20260906011514 | 91 | 104 | 0.0 | 0.0 | 0.00 | 0.00 | 0.00 | 54 | 1011.2 |
| 20260906011012 | 91 | 105 | 0.0 | 0.0 | 0.00 | 0.00 | 0.00 | 54 | 1011.1 |
| 20260906010012 | 92 | 105 | 0.0 | 0.0 | 0.00 | 0.00 | 0.00 | 52 | 1011.1 |
| 20260906005512 | 92 | 105 | 0.0 | 0.0 | 0.00 | 0.00 | 0.00 | 51 | 1011.0 |
| 20260906005012 | 93 | 105 | 0.0 | 0.0 | 0.00 | 0.00 | 0.00 | 50 | 1011.0 |
| 20260906004512 | 94 | 104 | 0.0 | 0.0 | 0.00 | 0.00 | 0.00 | 50 | 1011.0 |
| 20260906004012 | 94 | 104 | 0.0 | 0.0 | 0.00 | 0.00 | 0.00 | 49 | 1010.9 |
| 20260906003512 | 95 | 151 | 0.0 | 0.0 | 0.00 | 0.00 | 0.00 | 48 | 1010.9 |
| 20260906003013 | 96 | 124 | 0.0 | 0.0 | 0.00 | 0.00 | 0.00 | 47 | 1011.0 |
| 20260906002511 | 96 | 173 | 0.0 | 0.0 | 0.00 | 0.00 | 0.00 | 46 | 1011.1 |
| 20260906002010 | 97 | 212 | 0.0 | 0.0 | 0.00 | 0.00 | 0.00 | 46 | 1011.1 |
| 20260906001510 | 97 | 167 | 0.0 | 0.0 | 0.00 | 0.00 | 0.00 | 46 | 1011.0 |
| 20260906000010 | 98 | 164 | 0.0 | 0.0 | 0.00 | 0.00 | 0.00 | 44 | 1011.2 |
| 20260905235511 | 98 | 112 | 0.0 | 0.0 | 0.00 | 0.00 | 0.00 | 44 | 1011.3 |
| 20260905235011 | 98 | 243 | 0.0 | 0.0 | 0.00 | 0.00 | 0.00 | 44 | 1011.3 |
| 20260905234510 | 98 | 194 | 0.0 | 1.7 | 0.00 | 0.00 | 0.00 | 45 | 1011.2 |
| 20260905234010 | 98 | 236 | 0.0 | 1.7 | 0.00 | 0.00 | 0.00 | 44 | 1011.1 |
| 20260905233508 | 98 | 113 | 0.0 | 0.9 | 0.00 | 0.00 | 0.00 | 44 | 1011.0 |
| 20260905233008 | 98 | 129 | 0.0 | 0.9 | 0.00 | 0.00 | 0.00 | 45 | 1010.9 |
| 20260905232508 | 98 | 216 | 0.0 | 0.9 | 0.00 | 0.00 | 0.00 | 46 | 1010.8 |
| 20260905232009 | 98 | 148 | 0.0 | 0.9 | 0.00 | 0.00 | 0.00 | 46 | 1010.8 |
| 20260905231508 | 97 | 115 | 0.0 | 0.9 | 0.00 | 0.00 | 0.00 | 47 | 1010.7 |
| 20260905231009 | 97 | 140 | 0.0 | 2.6 | 0.00 | 0.00 | 0.00 | 47 | 1010.8 |
| 20260905230508 | 97 | 84 | 0.0 | 2.6 | 0.00 | 0.00 | 0.00 | 47 | 1010.8 |
| 20260905225509 | 97 | 156 | 0.0 | 3.5 | 0.00 | 0.00 | 0.00 | 47 | 1010.8 |
| 20260905225007 | 97 | 103 | 0.0 | 4.3 | 0.00 | 0.00 | 0.00 | 47 | 1010.9 |
| 20260905224507 | 98 | 210 | 0.0 | 4.3 | 0.00 | 0.00 | 0.00 | 47 | 1010.9 |
| 20260905224008 | 98 | 135 | 0.0 | 1.7 | 0.00 | 0.00 | 0.00 | 47 | 1010.9 |
| 20260905223510 | 98 | 124 | 0.0 | 0.9 | 0.00 | 0.00 | 0.00 | 48 | 1010.9 |
| 20260905223006 | 98 | 134 | 0.0 | 0.9 | 0.00 | 0.00 | 0.00 | 47 | 1011.0 |
| 20260905222006 | 97 | 108 | 0.0 | 3.5 | 0.00 | 0.00 | 0.00 | 48 | 1011.0 |
| 20260905220505 | 97 | 117 | 0.0 | 4.3 | 0.00 | 0.00 | 0.00 | 50 | 1010.8 |
| 20260905220008 | 96 | 214 | 0.0 | 4.3 | 0.00 | 0.00 | 0.00 | 51 | 1010.9 |
| 20260905215504 | 95 | 70 | 0.0 | 6.1 | 0.00 | 0.00 | 0.00 | 58 | 1010.8 |
| 20260905214505 | 95 | 72 | 0.9 | 6.1 | 0.00 | 0.00 | 0.00 | 57 | 1010.9 |
| 20260905214005 | 95 | 56 | 0.0 | 6.1 | 0.00 | 0.00 | 0.00 | 57 | 1010.9 |
| 20260905213504 | 95 | 70 | 0.9 | 5.2 | 0.00 | 0.00 | 0.00 | 57 | 1011.0 |
| 20260905213005 | 95 | 124 | 0.9 | 9.6 | 0.00 | 0.00 | 0.00 | 58 | 1011.1 |
| 20260905212005 | 94 | 123 | 0.9 | 7.8 | 0.00 | 0.00 | 0.00 | 59 | 1011.2 |
| 20260905211504 | 94 | 72 | 0.9 | 7.8 | 0.00 | 0.00 | 0.00 | 58 | 1011.4 |
| 20260905211004 | 94 | 88 | 0.9 | 7.0 | 0.00 | 0.00 | 0.00 | 59 | 1011.5 |
| 20260905210504 | 94 | 93 | 0.0 | 7.0 | 0.00 | 0.00 | 0.00 | 59 | 1011.5 |
| 20260905210004 | 94 | 106 | 0.9 | 8.7 | 0.00 | 0.00 | 0.00 | 59 | 1011.6 |
| 20260905205005 | 94 | 85 | 0.9 | 8.7 | 0.00 | 0.00 | 0.00 | 59 | 1011.8 |
| 20260905204506 | 94 | 77 | 1.7 | 8.7 | 0.00 | 0.00 | 0.00 | 59 | 1012.1 |
| 20260905204004 | 94 | 103 | 1.7 | 10.4 | 0.00 | 0.00 | 0.00 | 59 | 1012.2 |
| 20260905203503 | 94 | 89 | 1.7 | 10.4 | 0.00 | 0.00 | 0.00 | 59 | 1012.2 |
| 20260905203005 | 94 | 84 | 0.9 | 7.0 | 0.00 | 0.00 | 0.00 | 59 | 1012.2 |
| 20260905202504 | 94 | 96 | 0.0 | 5.2 | 0.00 | 0.00 | 0.00 | 59 | 1012.3 |
| 20260905202002 | 94 | 51 | 0.0 | 5.2 | 0.00 | 0.00 | 0.00 | 59 | 1012.4 |
| 20260905201501 | 94 | 99 | 0.9 | 9.6 | 0.00 | 0.00 | 0.00 | 58 | 1012.5 |
| 20260905201003 | 93 | 74 | 0.9 | 9.6 | 0.00 | 0.00 | 0.00 | 58 | 1012.6 |
| 20260905200502 | 94 | 45 | 0.9 | 9.6 | 0.00 | 0.00 | 0.00 | 59 | 1012.7 |
| 20260905200002 | 93 | 68 | 1.7 | 9.6 | 0.00 | 0.00 | 0.00 | 59 | 1012.7 |
| 20260905195502 | 93 | 99 | 1.7 | 7.8 | 0.00 | 0.00 | 0.00 | 58 | 1012.9 |
| 20260905195003 | 93 | 50 | 0.9 | 7.8 | 0.00 | 0.00 | 0.00 | 60 | 1012.9 |
| 20260905194502 | 93 | 44 | 0.9 | 7.8 | 0.00 | 0.00 | 0.00 | 58 | 1013.0 |
| 20260905194001 | 93 | 85 | 0.9 | 7.8 | 0.00 | 0.00 | 0.00 | 57 | 1013.2 |
| 20260905192958 | 93 | 83 | 2.6 | 11.3 | 0.00 | 0.00 | 0.00 | 58 | 1013.4 |
| 20260905192458 | 93 | 61 | 1.7 | 12.2 | 0.00 | 0.00 | 0.00 | 58 | 1013.5 |
| 20260905191457 | 94 | 64 | 0.9 | 7.8 | 0.00 | 0.00 | 0.00 | 58 | 1013.6 |